User: anonymous   Login
Location: Unspecified
(0.0000°N, 0.0000°E)
Time: 06:46:50
(UTC+00:00)
Language:

STARLINK-5645 - Orbit

View from above orbital plane
View from above orbital plane
View from above satellite
View from above satellite

Ground track
Ground track

The orbit is defined by the following mean orbital elements,

1 55429U          26145.55851744 +.00000000 +00000-0 -72578-4 0 00009
2 55429  69.9992 250.7498 0003039 267.0048  93.0763 14.98336767    00
Epoch (UTC): 25 May 2026 13:24:15
Eccentricity: 0.0003039
inclination: 69.9992°
perigee height: 570 km
apogee height: 574 km
right ascension of ascending node: 250.7498°
argument of perigee: 267.0048°
revolutions per day: 14.98336767
mean anomaly at epoch: 93.0763°

The dashed part of the orbit path shows where the satellite is in the earth's shadow,  

DLR